FW8396 Weather Reports


Display with metric or nautical units.
time (UTC)temp
F
wind
direction
speed
MPH
gust
MPH
rain 1hr
in
rain 24hr
in
rain mn
in
humidity
%
barometer
mb
20260509230030 90 84 0.0 6.0 0.00 0.00 0.00 60 1009.5
20260509224528 90 0 0.0 4.0 0.00 0.00 0.00 58 1009.3
20260509223029 91 0 0.0 3.0 0.00 0.00 0.00 57 1009.3
20260509221532 92 262 0.0 2.0 0.00 0.00 0.00 55 1009.3
20260509220030 92 0 0.0 4.0 0.00 0.00 0.00 55 1009.3
20260509214530 92 348 2.0 5.0 0.00 0.00 0.00 57 1009.3
20260509213028 91 61 1.0 4.0 0.00 0.00 0.00 57 1009.2
20260509211549 91 0 1.0 4.0 0.00 0.00 0.00 58 1009.2
20260509210028 92 273 1.0 5.0 0.00 0.00 0.00 57 1009.4
20260509204528 92 82 0.0 4.0 0.00 0.00 0.00 57 1009.6
20260509203039 92 282 2.0 9.0 0.00 0.00 0.00 57 1009.6
20260509201528 91 290 1.0 7.0 0.00 0.00 0.00 57 1009.6
20260509200031 92 317 2.0 6.0 0.00 0.00 0.00 58 1009.8
20260509194530 91 302 1.0 8.0 0.00 0.00 0.00 58 1010.0
20260509193033 91 290 1.0 6.0 0.00 0.00 0.00 57 1010.0
20260509191529 90 222 1.0 5.0 0.00 0.00 0.00 59 1010.2
20260509190036 89 298 1.0 7.0 0.00 0.00 0.00 61 1010.2
20260509184527 89 169 1.0 7.0 0.00 0.04 0.00 65 1010.3
20260509183030 88 0 2.0 7.0 0.00 0.04 0.00 67 1010.6
20260509181529 87 282 1.0 6.0 0.00 0.04 0.00 66 1010.9
20260509180031 86 274 2.0 7.0 0.00 0.04 0.00 71 1011.5
20260509174531 85 167 1.0 6.0 0.00 0.05 0.00 74 1011.7
20260509173030 83 165 2.0 9.0 0.00 0.05 0.00 78 1011.7
20260509171528 82 0 1.0 6.0 0.00 0.05 0.00 79 1012.2
20260509170031 81 175 1.0 5.0 0.00 0.05 0.00 80 1012.3
20260509164528 81 0 0.0 4.0 0.00 0.06 0.00 80 1012.2
20260509163040 81 0 0.0 4.0 0.00 0.06 0.00 81 1012.2
20260509161530 80 0 0.0 2.0 0.00 0.06 0.00 81 1012.2
20260509160030 80 161 0.0 3.0 0.00 0.06 0.00 82 1012.1
20260509154529 80 0 1.0 3.0 0.00 0.06 0.00 83 1012.0
20260509153030 79 0 0.0 3.0 0.00 0.06 0.00 85 1012.0
20260509151530 78 0 0.0 1.0 0.00 0.06 0.00 87 1012.3
20260509150029 77 198 0.0 2.0 0.00 0.06 0.00 89 1012.3
20260509144528 76 0 0.0 2.0 0.00 0.06 0.00 90 1012.0
20260509143030 76 0 0.0 2.0 0.00 0.06 0.00 90 1011.8
20260509141530 76 0 0.0 4.0 0.00 0.06 0.00 92 1011.3
20260509140030 76 161 0.0 2.0 0.00 0.06 0.00 92 1011.3
20260509134528 76 173 0.0 4.0 0.00 0.06 0.00 93 1011.5
20260509133029 75 178 1.0 4.0 0.00 0.06 0.00 93 1012.2
20260509131533 75 180 0.0 2.0 0.00 0.06 0.00 94 1012.2
20260509130030 75 0 0.0 3.0 0.00 0.06 0.00 94 1012.3
20260509124527 74 0 0.0 1.0 0.00 0.06 0.00 94 1012.0
20260509123028 73 0 0.0 1.0 0.00 0.06 0.00 94 1012.0
20260509121537 73 0 0.0 1.0 0.00 0.06 0.00 94 1012.0
20260509120033 73 0 0.0 2.0 0.00 0.06 0.00 93 1011.6
20260509114531 73 0 0.0 1.0 0.00 0.06 0.00 93 1011.7
20260509113030 74 0 0.0 1.0 0.00 0.06 0.00 93 1012.3
20260509111530 73 0 0.0 1.0 0.00 0.06 0.00 93 1011.8
20260509110028 74 0 0.0 2.0 0.00 0.06 0.00 93 1011.7
20260509104534 73 0 0.0 1.0 0.00 0.06 0.00 93 1011.2
20260509103029 74 0 0.0 1.0 0.00 0.06 0.00 93 1011.4
20260509101532 74 0 0.0 1.0 0.00 0.06 0.00 93 1011.5
20260509100029 74 0 0.0 1.0 0.00 0.06 0.00 93 1011.4
20260509094528 74 0 0.0 1.0 0.00 0.06 0.00 93 1011.3
20260509093028 74 0 0.0 2.0 0.00 0.06 0.00 92 1011.5
20260509091535 74 0 0.0 1.0 0.00 0.06 0.00 93 1011.4
20260509090030 74 0 0.0 1.0 0.00 0.06 0.00 92 1011.4
20260509084536 75 0 0.0 2.0 0.00 0.06 0.00 93 1011.3
20260509083030 75 0 1.0 6.0 0.00 0.06 0.00 93 1011.1
20260509081530 74 0 0.0 1.0 0.00 0.06 0.00 92 1011.6
20260509080040 75 123 0.0 4.0 0.00 0.06 0.00 92 1011.4
20260509074530 75 0 0.0 2.0 0.00 0.06 0.00 92 1011.4
20260509073049 75 0 0.0 3.0 0.00 0.06 0.00 92 1011.7
20260509071528 75 0 0.0 4.0 0.00 0.06 0.00 92 1011.8
20260509070030 75 0 1.0 5.0 0.00 0.06 0.00 92 1011.9
20260509064530 75 0 0.0 1.0 0.00 0.06 0.00 92 1011.8
20260509063033 75 0 0.0 3.0 0.00 0.06 0.00 91 1011.8
20260509061530 75 0 0.0 3.0 0.00 0.06 0.00 92 1011.9
20260509060030 74 0 0.0 1.0 0.00 0.06 0.00 92 1012.0
20260509054535 74 0 0.0 1.0 0.00 0.06 0.00 91 1012.2
20260509053031 74 0 0.0 1.0 0.00 0.06 0.00 91 1012.2
20260509051533 74 0 0.0 3.0 0.00 0.06 0.00 91 1012.3
20260509050037 74 0 0.0 2.0 0.00 0.06 0.00 91 1012.3
20260509044531 74 0 0.0 2.0 0.00 0.06 0.06 91 1012.2
20260509043041 74 0 0.0 2.0 0.00 0.06 0.06 91 1012.3
20260509041530 74 0 0.0 1.0 0.00 0.06 0.06 91 1012.1
20260509040029 74 87 0.0 3.0 0.00 0.06 0.06 91 1011.8
20260509034529 74 0 1.0 2.0 0.00 0.06 0.06 91 1011.9
20260509033030 74 0 0.0 4.0 0.00 0.06 0.06 91 1011.8
20260509031533 74 67 0.0 3.0 0.00 0.06 0.06 91 1011.7
20260509030036 74 70 0.0 2.0 0.00 0.06 0.06 91 1011.9
20260509024530 74 0 1.0 4.0 0.00 0.06 0.06 90 1011.4
20260509023029 74 0 0.0 4.0 0.00 0.06 0.06 90 1011.6
20260509021530 74 49 0.0 4.0 0.00 0.06 0.06 90 1011.2
20260509020033 74 61 0.0 5.0 0.00 0.06 0.06 90 1011.1
20260509014532 74 84 1.0 4.0 0.00 0.06 0.06 89 1011.0
20260509013044 74 107 0.0 3.0 0.00 0.06 0.06 89 1011.0
20260509011532 74 93 1.0 4.0 0.00 0.06 0.06 89 1011.0
20260509010031 74 128 1.0 5.0 0.00 0.06 0.06 89 1011.0
20260509004556 74 92 2.0 5.0 0.00 0.06 0.06 89 1011.0
20260509003037 74 65 2.0 6.0 0.00 0.06 0.06 89 1010.8
20260509001528 74 0 1.0 6.0 0.00 0.06 0.06 89 1010.9
20260509000029 74 42 3.0 7.0 0.00 0.06 0.06 89 1011.0
20260508234531 74 53 1.0 5.0 0.00 0.06 0.06 89 1011.1
20260508233028 74 108 0.0 3.0 0.00 0.06 0.06 89 1011.4
20260508231530 74 66 0.0 3.0 0.00 0.06 0.06 89 1011.2